Location: Hodgeman County Ambulance
(38.0844°N, 99.8949°W)
Time: 01:36:57
(UTC+00:00)

X-37B - Pass Details

Date: 29 September 2021
Orbit: 445 x 447 km, 45.0° (Epoch: 24 October)

Event Time Altitude Azimuth Distance (km) Brightness Sun altitude
Exits shadow 10:41:35 26° 0° (N) 923 2.6 -22.7°
Maximum altitude 10:41:41 26° 3° (N) 922 2.6 -22.7°
Drops below altitude 10° 10:44:43 10° 62° (ENE) 1,566 4.7 -22.1°
Sets 10:47:06 0° 76° (ENE) 2,436 6.2 -21.6°
